Southeast Texas Regional Airport
KBPT : rendu visible

Aérodrome :











RETROUVEZ-NOUS SUR...

 
LOGIN :

S'inscrire | Disclaimer

   EN    FR    IT 

 









Légende :    VFR   VFR Marginal   IFR   IFR Intensif   IFR Très Intensif
Visi : 
Plafond : 
>= 8 km
>= 3000ft
5 à 8 km
1000 à 3000 ft
1500m à 5 km
500 à 1000 ft
800 à 1500m
200 à 500 ft
< 800m
< 200 ft
Symboles :   Orages  Brouillard  Fortes neiges  Fortes précipitations  Vent > 20 kt






- Altitude de l'aérodrome : 15 ft
- Code IATA : BPT


KBPT - Southeast Texas Regional

DERNIER METAR :
  • 121953Z 21006KT 10SM FEW036 34/26 A2989 RMK AO2 SLP121 T03390256 $

METARs EXPIRÉS :
  • 121853Z 24008KT 10SM CLR 34/26 A2991 RMK AO2 SLP127 T03390256 $
  • 121753Z 22012G18KT 10SM FEW025 32/26 A2991 RMK AO2 SLP129 T03220256 10328 20250 58019 $

TAF KBPT
Valide du 12 à 18h jusqu'au 13 à 18h UTC


121724Z 1218/1318 24010KT P6SM SCT030 SCT250
FM130100 21004KT P6SM SKC
FM131500 25008KT P6SM FEW015
FIR KZHU / Amérique du Nord



MET'MAP, la Météo Aéronautique d'un coup d'oeil ! - Copyright ORBIFLY Décembre 2007 - Disclaimer

ORBIFLY MET'MAP TEAM :

Programmation & Développement : Alexandra Zaïnal
Sur une idée originale de : Baudouin d'Aumeries
Assistance à la programmation : Marc-Olivier Méhu
Soutien technique & logistique : Manuel Goepfert

Contact : metmap@orbifly.com




SOURCES & CREDITS :

   NOAA       Earth
Advisory